This demonstration page uses our WeatherBlox Daily Observations layout. Learn more.

Left ArrowRight Arrow

39.29038, -76.61219

Hourly Observations for May 7, 2020

Temp ( °F °C ) Dew Point ( °F °C ) Humidity (%) Winds ( mph kmh ) Pressure ( in mb ) Visibility ( mi km ) Precip ( " mm )
12:54 am 00:54 undefined 47 8.3 43 6.1 86 86 undefined N/A 29.88 1012 N/A N/A
1:54 am 01:54 undefined 47 8.3 42 5.6 83 83 undefined N/A 29.86 1011 N/A N/A
2:54 am 02:54 undefined 47 8.3 41 5 80 80 undefined N/A 29.85 1011 N/A N/A
3:54 am 03:54 undefined 46 7.8 41 5 83 83 undefined N/A 29.85 1011 N/A N/A
4:54 am 04:54 undefined 46 7.8 40 4.4 79 79 undefined N/A 29.86 1011 N/A N/A
5:54 am 05:54 undefined 45 7.2 39 3.9 80 80 undefined N/A 29.85 1011 N/A N/A
6:54 am 06:54 undefined 46 7.8 40 4.4 79 79 undefined N/A 29.88 1012 N/A N/A
7:54 am 07:54 undefined 50 10 38 3.3 63 63 undefined N/A 29.92 1013 N/A N/A
8:54 am 08:54 undefined 52 11.1 36 2.2 55 55 undefined N/A 29.93 1014 N/A N/A
9:54 am 09:54 undefined 55 12.8 34 1.1 45 45 undefined N/A 29.93 1014 N/A N/A
10:54 am 10:54 undefined 59 15 31 -0.6 35 35 undefined N/A 29.93 1014 N/A N/A
11:54 am 11:54 undefined 61 16.1 29 -1.7 30 30 undefined N/A 29.93 1013 N/A N/A
12:54 pm 12:54 undefined 63 17.2 29 -1.7 28 28 undefined N/A 29.89 1012 N/A N/A
1:54 pm 13:54 undefined 63 17.2 24 -4.4 23 23 undefined N/A 29.87 1012 N/A N/A
2:54 pm 14:54 undefined 66 18.9 30 -1.1 26 26 undefined N/A 29.87 1012 N/A N/A
3:54 pm 15:54 undefined 67 19.4 29 -1.7 24 24 undefined N/A 29.84 1011 N/A N/A
4:54 pm 16:54 undefined 67 19.4 26 -3.3 21 21 undefined N/A 29.82 1010 N/A N/A
5:54 pm 17:54 undefined 66 18.9 25 -3.9 21 21 undefined N/A 29.80 1009 N/A N/A
6:54 pm 18:54 undefined 66 18.9 26 -3.3 22 22 undefined N/A 29.80 1009 N/A N/A
7:54 pm 19:54 undefined 65 18.3 26 -3.3 23 23 undefined N/A 29.82 1010 N/A N/A
8:54 pm 20:54 undefined 62 16.7 28 -2.2 28 28 undefined N/A 29.83 1010 N/A N/A
9:54 pm 21:54 undefined 61 16.1 30 -1.1 31 31 undefined N/A 29.84 1011 N/A N/A
10:54 pm 22:54 undefined 60 15.6 31 -0.6 33 33 undefined N/A 29.85 1011 N/A N/A
11:54 pm 23:54 undefined 57 13.9 31 -0.6 37 37 undefined N/A 29.84 1011 N/A N/A

Powered by AerisWeather